This demonstration page uses our WeatherBlox Daily Observations layout. Learn more.

38.89511, -77.03637

Hourly Observations for March 9, 2015

Temp ( °F °C ) Dew Point ( °F °C ) Humidity (%) Winds ( mph kmh ) Pressure ( in mb ) Visibility ( mi km ) Precip ( " mm )
12:52 am 00:52 Cloudy 39 4 28 -2 65 65 Calm 30.18 1022 10 16.09344 0 0
1:52 am 01:52 Clear 39 4 30 -1 70 70 Calm 30.15 1021 10 16.09344 0 0
2:52 am 02:52 Cloudy 37 3 28 -2 70 70 NNE 3 6 30.15 1021 10 16.09344 0 0
3:52 am 03:52 Cloudy 37 3 28 -2 70 70 Calm 30.15 1021 10 16.09344 0 0
4:52 am 04:52 Cloudy 37 3 28 -2 70 70 N 3 6 30.15 1021 10 16.09344 0 0
5:52 am 05:52 Cloudy 39 4 28 -2 65 65 Calm 30.15 1021 10 16.09344 0 0
6:52 am 06:52 Cloudy 37 3 28 -2 70 70 N 5 7 30.18 1022 10 16.09344 0 0
7:52 am 07:52 Cloudy 39 4 28 -2 65 65 N 3 6 30.18 1022 10 16.09344 0 0
8:52 am 08:52 Cloudy 39 4 30 -1 70 70 N 5 7 30.21 1023 10 16.09344 0 0
9:52 am 09:52 Cloudy 45 7 30 -1 57 57 Calm 30.24 1024 10 16.09344 0 0
10:52 am 10:52 Mostly Cloudy 50 10 30 -1 47 47 Calm 30.24 1024 10 16.09344 0 0
11:52 am 11:52 Mostly Cloudy 54 12 30 -1 41 41 Calm 30.24 1024 10 16.09344 0 0
12:52 pm 12:52 Partly Cloudy 59 15 28 -2 31 31 ENE 3 6 30.24 1024 10 16.09344 0 0
1:52 pm 13:52 Partly Cloudy 61 16 30 -1 31 31 ENE 3 6 30.21 1023 10 16.09344 0 0
2:52 pm 14:52 Mostly Cloudy 59 15 30 -1 34 34 SSE 5 7 30.18 1022 10 16.09344 0 0
3:52 pm 15:52 Mostly Cloudy 63 17 30 -1 30 30 Calm 30.18 1022 10 16.09344 0 0
4:52 pm 16:52 Mostly Cloudy 61 16 32 0 34 34 S 9 15 30.18 1022 10 16.09344 0 0
5:52 pm 17:52 Mostly Cloudy 57 14 32 0 39 39 S 10 17 30.18 1022 10 16.09344 0 0
6:52 pm 18:52 Mostly Cloudy 57 14 30 -1 36 36 S 6 9 30.18 1022 10 16.09344 0 0
7:52 pm 19:52 Partly Cloudy 54 12 30 -1 41 41 S 3 6 30.21 1023 10 16.09344 0 0
8:52 pm 20:52 Partly Cloudy 54 12 30 -1 41 41 Calm 30.21 1023 10 16.09344 0 0
9:52 pm 21:52 Partly Cloudy 50 10 30 -1 47 47 NNE 3 6 30.24 1024 10 16.09344 0 0
10:52 pm 22:52 Mostly Cloudy 48 9 30 -1 50 50 ENE 6 9 30.24 1024 10 16.09344 0 0
11:52 pm 23:52 Mostly Cloudy 46 8 30 -1 53 53 ENE 3 6 30.27 1025 10 16.09344 0 0

Powered by AerisWeather